This is the latest recevied weather packets stored in our database for station/object DG4CB-13. If no packets are shown the sender has not sent any weather packets the latest 10 day(s).
| Time | Temp. | Humidity | Pressure | Rain* | Wind** | Luminosity | Snow |
|---|---|---|---|---|---|---|---|
| 1788097800 | 25.56° C | 41% | 1012.2 hPa | - | - | - | - |
| 1788097200 | 25° C | 42% | 1012 hPa | - | - | - | - |
| 1788096600 | 25° C | 42% | 1012.2 hPa | - | - | - | - |
| 1788096008 | 24.44° C | 44% | 1012.2 hPa | - | - | - | - |
| 1788095400 | 24.44° C | 45% | 1012.1 hPa | - | - | - | - |
| 1788094800 | 24.44° C | 45% | 1012.3 hPa | - | - | - | - |
| 1788094200 | 24.44° C | 45% | 1012.1 hPa | - | - | - | - |
| 1788093600 | 23.89° C | 45% | 1012.1 hPa | - | - | - | - |
| 1788093000 | 23.89° C | 46% | 1012.2 hPa | - | - | - | - |
| 1788092399 | 23.89° C | 45% | 1012.2 hPa | - | - | - | - |
| 1788091800 | 23.89° C | 45% | 1012.4 hPa | - | - | - | - |
| 1788091199 | 23.89° C | 46% | 1012.4 hPa | - | - | - | - |
| 1788090599 | 23.33° C | 45% | 1012.4 hPa | - | - | - | - |
| 1788089999 | 22.78° C | 45% | 1012.4 hPa | - | - | - | - |
| 1788089399 | 22.78° C | 45% | 1012.4 hPa | - | - | - | - |
| 1788088799 | 22.78° C | 46% | 1012.4 hPa | - | - | - | - |
| 1788088199 | 22.78° C | 46% | 1012.4 hPa | - | - | - | - |
| 1788087600 | 23.33° C | 47% | 1012.3 hPa | - | - | - | - |
| 1788086400 | 22.22° C | 51% | 1012.4 hPa | - | - | - | - |
| 1788085800 | 21.67° C | 52% | 1012.5 hPa | - | - | - | - |
| 1788085200 | 21.67° C | 54% | 1012.4 hPa | - | - | - | - |
| 1788084600 | 21.67° C | 54% | 1012.5 hPa | - | - | - | - |
| 1788084000 | 21.67° C | 54% | 1012.5 hPa | - | - | - | - |
| 1788083400 | 21.67° C | 54% | 1012.4 hPa | - | - | - | - |
| 1788082800 | 21.67° C | 54% | 1012.4 hPa | - | - | - | - |
* Rain since midnight (hover to see other rain measurements)
** Current wind speed in m/s (hover to see current wind gust speed)